343  
ASUS44 KBMX 071010  
RWRAL  
 
ALABAMA REGIONAL WEATHER ROUNDUP  
NATIONAL WEATHER SERVICE BIRMINGHAM AL  
400 AM CST TUE FEB 07 2023  
 
NOTE: "FAIR" INDICATES FEW OR NO CLOUDS BELOW 12,000 FEET  
WITH NO SIGNIFICANT WEATHER AND/OR S TO VISIBILITY
.  
 
THE REMARK "TC" DENOTES TEMPERATURE IN DEGREES CELSIUS.  
 
ALZ001>011-014-016>018-020-071100-  
NORTH ALABAMA  
 
CITY SKY/WX TMP DP RH WIND PRES REMARKS
 
MUSCLE SHOALS PTCLDY 44 37 76 CALM 30.15R  
HUNTSVILLE CLEAR 44 33 65 SE8 30.16R  
DECATUR CLEAR 43 32 65 CALM 30.16R  
HALEYVILLE FAIR 46 35 65 S7 30.18S  
GADSDEN CLEAR 31 31 100 CALM 30.22S  

 
 
ALZ012-013-022-023-030>036-040>044-071100-  
WEST CENTRAL ALABAMA  
 
CITY SKY/WX TMP DP RH WIND PRES REMARKS
 
TUSCALOOSA CLEAR 39 37 92 CALM 30.19R  
DEMOPOLIS NOT AVBL  

 
 
ALZ015-024>026-033>036-041>044-071100-  
CENTRAL ALABAMA  
 
CITY SKY/WX TMP DP RH WIND PRES REMARKS
 
BIRMINGHAM PTCLDY 48 34 58 S3 30.21R  
MONTGOMERY PTCLDY 43 37 79 CALM 30.20R  
SHELBY CO ARPT CLEAR 42 35 76 CALM 30.19R  
MAXWELL AFB PTCLDY 42 36 79 CALM 30.18R  
GREENVILLE FAIR 41 37 86 CALM 30.18R  
SELMA FAIR 41 39 93 SE3 30.19R  
PRATTVILLE FAIR 39 39 100 CALM 30.20R  
BESSEMER FAIR 47 34 60 SE3 30.20R  
TALLADEGA FAIR 36 34 92 CALM 30.21S  
PELL CITY CLOUDY 34 34 100 CALM 30.22R  
SYLACAUGA CLOUDY 37 36 94 CALM 30.19F  
JASPER CLOUDY 34 34 100 CALM 30.19R FOG  

 
 
ALZ019-021-028-029-037-038-045>048-071100-  
EAST CENTRAL ALABAMA  
 
CITY SKY/WX TMP DP RH WIND PRES REMARKS
 
ANNISTON CLEAR 42 34 73 E5 30.21S  
ALEXANDER CITY PTCLDY 36 36 100 CALM 30.21R  
AUBURN PTCLDY 50 34 54 E3 30.23R  

 
 
ALZ051>064-071100-  
SOUTHWEST ALABAMA  
 
CITY SKY/WX TMP DP RH WIND PRES REMARKS
 
MOBILE PTCLDY 57 53 86 E8 30.14R  
BROOKLEY FIELD MOCLDY 57 54 89 SE8 30.16R  
EVERGREEN CLEAR 39 37 92 CALM 30.20R  

 
 
ALZ049-050-065>069-071100-  
SOUTHEAST ALABAMA  
 
CITY SKY/WX TMP DP RH WIND PRES REMARKS
 
DOTHAN CLEAR 50 36 58 E7 30.24R  
OZARK CLEAR 45 36 70 NE6 30.20R  
TROY CLEAR 40 36 86 CALM 30.21R  
EUFAULA FAIR 39 37 92 CALM 30.23S  

 
 
 
CLICK HERE TO GO TO PREVIOUS BULLETINS.

The Nexlab AL Page Main Text Page